Gdansk Airport, Poland

5:01 PM CET on February 06, 2016 (GMT +0100)
Rebiechowo

Weather History for EPGD - March, 2013

Change the Weather History Date:

Sunday, March 24, 2013

  Actual Average Record
Temperature  
Mean Temperature 21 °F -  
Max Temperature 28 °F 48 °F 86 °F (2003)
Min Temperature 14 °F 32 °F 10 °F (2008)
Degree Days  
Heating Degree Days 44    
Moisture  
Dew Point 17 °F    
Average Humidity 81    
Maximum Humidity 100    
Minimum Humidity 64    
Precipitation  
Precipitation 0.00 in - - ()
Sea Level Pressure  
Sea Level Pressure 30.33 in    
Wind  
Wind Speed 4 mph ()    
Max Wind Speed 12 mph    
Max Gust Speed 22 mph    
Visibility 4.8 miles    
Events Fog , Snow    
Averages and records for this station are not official NWS values.
T = Trace of Precipitation, MM = Missing Value Source: Averaged Metar Reports

Daily Weather History Graph

Daily Weather History Graph

Search for Another Location

Airport or City:

Trip Planner

Search our weather history database for the weather conditions in past years. The results will help you decide how hot, cold, wet, or windy it might be!

Date:

Astronomy

Mar. 24, 2013 Rise Set
Actual Time 5:38 AM CET 6:07 PM CET
Civil Twilight 5:02 AM CET 6:43 PM CET
Nautical Twilight 4:19 AM CET 7:26 PM CET
Astronomical Twilight 3:34 AM CET 8:11 PM CET
Moon 2:55 PM CET (3/24) 4:03 AM CET (3/24)
Length of Visible Light 13h 40m
Length of Day
12h 28m
Waxing Gibbous, 90% of the Moon is Illuminated
Mar 24
Waxing Gibbous
Mar 27
Full
Apr 3
Last Quarter
Apr 10
New
Apr 18
First Quarter

Hourly Weather History & Observations

Time (CET) Temp. Windchill Dew Point Humidity Pressure Visibility Wind Dir Wind Speed Gust Speed Precip Events Conditions
12:00 AM 15.8 °F - 15.8 °F 100% 30.33 in 3.1 mi West 2.3 mph - N/A Snow Light Snow
12:30 AM 17.6 °F 12.3 °F 15.8 °F 93% 30.33 in 1.9 mi West 3.5 mph - N/A Snow Light Snow Showers
1:00 AM 15.8 °F 10.2 °F 14.0 °F 93% 30.33 in 3.1 mi West 3.5 mph - N/A Snow Light Snow Showers
1:30 AM 15.8 °F 10.2 °F 14.0 °F 93% 30.33 in 4.3 mi West 3.5 mph - N/A Snow Light Snow Showers
2:00 AM 15.8 °F 10.2 °F 14.0 °F 93% 30.33 in 3.1 mi West 3.5 mph - N/A Snow Light Snow Showers
2:30 AM 17.6 °F 12.3 °F 15.8 °F 93% 30.33 in 6.2 mi West 3.5 mph - N/A   Mostly Cloudy
3:00 AM 17.6 °F 12.3 °F 15.8 °F 93% 30.33 in 6.2 mi West 3.5 mph - N/A   Scattered Clouds
3:30 AM 15.8 °F - 14.0 °F 93% 30.33 in 6.2 mi West 2.3 mph - N/A   Partly Cloudy
4:00 AM 15.8 °F 7.2 °F 15.8 °F 100% 30.30 in 6.2 mi West 5.8 mph - N/A   Partly Cloudy
4:30 AM 14.0 °F 6.5 °F 14.0 °F 100% 30.33 in 1.2 mi West 4.6 mph - N/A Fog Shallow Fog
5:00 AM 15.8 °F 10.2 °F 14.0 °F 93% 30.30 in 0.4 mi West 3.5 mph - N/A Fog Light Freezing Fog
5:30 AM 15.8 °F 10.2 °F 14.0 °F 93% 30.30 in 0.2 mi West 3.5 mph - N/A Fog Light Freezing Fog
6:00 AM 14.0 °F - 12.2 °F 93% 30.30 in 0.5 mi West 2.3 mph - N/A Fog Light Freezing Fog
6:30 AM 15.8 °F 10.2 °F 14.0 °F 93% 30.30 in 3.7 mi West 3.5 mph - N/A   Partly Cloudy
7:00 AM 15.8 °F 10.2 °F 14.0 °F 93% 30.33 in 5.0 mi West 3.5 mph - N/A   Partly Cloudy
7:30 AM 15.8 °F 10.2 °F 14.0 °F 93% 30.33 in 5.0 mi WNW 3.5 mph - N/A   Partly Cloudy
8:00 AM 15.8 °F 8.6 °F 15.8 °F 100% 30.33 in 5.0 mi WNW 4.6 mph - N/A   Partly Cloudy
8:30 AM 17.6 °F 12.3 °F 17.6 °F 100% 30.33 in 5.0 mi WNW 3.5 mph - N/A   Scattered Clouds
9:00 AM 21.2 °F 16.4 °F 19.4 °F 93% 30.33 in 4.3 mi WNW 3.5 mph - N/A   Scattered Clouds
9:30 AM 23.0 °F - 21.2 °F 93% 30.33 in 4.3 mi WNW 2.3 mph - N/A Snow Light Snow Showers
10:00 AM 24.8 °F - 23.0 °F 93% 30.33 in 0.6 mi NNW 1.2 mph - N/A Snow Snow Showers
10:30 AM 26.6 °F 18.2 °F 24.8 °F 93% 30.33 in 4.3 mi East 8.1 mph - N/A Snow Light Snow Showers
11:00 AM 28.4 °F 19.1 °F 19.4 °F 69% 30.33 in 6.2 mi East 10.4 mph - N/A   Scattered Clouds
11:30 AM 28.4 °F 19.1 °F 17.6 °F 64% 30.33 in 6.2 mi ENE 10.4 mph - N/A   Scattered Clouds
12:00 PM 28.4 °F 18.5 °F 19.4 °F 69% 30.33 in 6.2 mi East 11.5 mph - N/A   Scattered Clouds
12:30 PM 28.4 °F 19.7 °F 17.6 °F 64% 30.33 in 6.2 mi ENE 9.2 mph - N/A   Scattered Clouds
1:00 PM 28.4 °F 20.4 °F 17.6 °F 64% 30.33 in 6.2 mi East 8.1 mph 21.9 mph N/A   Scattered Clouds
1:30 PM 28.4 °F 19.7 °F 17.6 °F 64% 30.33 in 6.2 mi NE 9.2 mph - N/A   Scattered Clouds
2:00 PM 28.4 °F 19.7 °F 17.6 °F 64% 30.33 in 5.0 mi NE 9.2 mph - N/A Snow Light Snow Showers
2:30 PM 28.4 °F 21.2 °F 19.4 °F 69% 30.33 in 5.6 mi ENE 6.9 mph - N/A Snow Light Snow Showers
3:00 PM 28.4 °F 21.2 °F 19.4 °F 69% 30.33 in 2.5 mi NNE 6.9 mph - N/A Snow Light Snow Showers
3:30 PM 28.4 °F 20.4 °F 19.4 °F 69% 30.33 in 6.2 mi NNE 8.1 mph - N/A   Mostly Cloudy
4:00 PM 26.6 °F 18.2 °F 19.4 °F 74% 30.33 in 6.2 mi NE 8.1 mph - N/A Snow Light Snow Showers
4:30 PM 26.6 °F 16.8 °F 21.2 °F 80% 30.33 in 1.9 mi NNE 10.4 mph - N/A Snow Light Snow Showers
5:00 PM 26.6 °F 22.6 °F 21.2 °F 80% 30.33 in 6.2 mi NNE 3.5 mph - N/A   Partly Cloudy
5:30 PM 26.6 °F 18.2 °F 17.6 °F 69% 30.30 in 6.2 mi NNE 8.1 mph - N/A   Scattered Clouds
6:00 PM 26.6 °F 19.1 °F 17.6 °F 69% 30.33 in 6.2 mi NNE 6.9 mph - N/A   Scattered Clouds
6:30 PM 26.6 °F 21.2 °F 17.6 °F 69% 30.33 in 6.2 mi NNE 4.6 mph - N/A   Scattered Clouds
7:00 PM 26.6 °F 20.0 °F 15.8 °F 64% 30.33 in 6.2 mi NNE 5.8 mph - N/A   Scattered Clouds
7:30 PM 26.6 °F 20.0 °F 17.6 °F 69% 30.33 in 6.2 mi NE 5.8 mph - N/A   Scattered Clouds
8:00 PM 26.6 °F 21.2 °F 17.6 °F 69% 30.33 in 6.2 mi NNE 4.6 mph - N/A Snow Light Snow Showers
8:30 PM 26.6 °F 18.2 °F 19.4 °F 74% 30.33 in 6.2 mi NE 8.1 mph - N/A Snow Light Snow Showers
9:00 PM 28.4 °F 23.3 °F 19.4 °F 69% 30.33 in 6.2 mi NNE 4.6 mph - N/A Snow Light Snow Showers
9:30 PM 26.6 °F 20.0 °F 17.6 °F 69% 30.33 in 6.2 mi NE 5.8 mph - N/A   Scattered Clouds
10:00 PM 28.4 °F 23.3 °F 17.6 °F 64% 30.33 in 6.2 mi NE 4.6 mph - N/A   Scattered Clouds
10:30 PM 28.4 °F 22.2 °F 17.6 °F 64% 30.33 in 6.2 mi NE 5.8 mph - N/A   Mostly Cloudy
11:00 PM 28.4 °F 24.6 °F 17.6 °F 64% 30.33 in 6.2 mi NE 3.5 mph - N/A Snow Light Snow Showers
11:30 PM 28.4 °F 21.2 °F 21.2 °F 74% 30.33 in 6.2 mi NE 6.9 mph - N/A Snow Light Snow Showers